Wind_Speed
50 50 50 50 49 49 48 48 49 50 48 47 47 47 48 48 49 48 49 51 52 52 53 53 54 54 54 53 53 52 51 50 50 48 48 47 46 45
49 49 48 48 48 48 48 48 48 48 48 47 47 48 48 49 50 50 50 51 52 52 53 53 53 54 54 53 53 52 51 50 49 50 49 48 47 46
45 46 46 46 47 48 48 49 49 48 49 48 48 49 49 50 51 51 51 51 52 53 54 54 53 53 53 53 53 53 52 50 50 49 49 49 48 48
40 41 42 44 45 46 47 48 49 49 49 49 50 50 51 51 51 52 52 52 53 54 55 54 53 53 53 53 53 52 52 51 50 49 49 49 48 47
38 40 41 42 44 45 46 47 47 49 49 50 50 51 51 52 52 53 53 54 55 54 54 53 52 52 52 52 51 51 50 49 49 48 48 47 46 46
38 40 41 42 43 43 44 45 46 47 49 50 50 51 52 53 53 53 53 55 55 54 52 51 51 50 50 49 48 48 48 48 48 48 47 47 47 46
38 39 41 42 43 44 44 45 46 47 49 50 50 51 52 52 53 53 54 54 54 53 52 51 50 49 49 47 47 47 47 47 47 47 48 48 48 47
36 37 39 40 41 43 45 46 47 48 49 50 51 51 52 53 53 54 54 54 53 53 52 50 50 49 48 47 47 47 46 45 45 44 44 45 45 44
35 37 38 39 41 42 44 46 48 49 50 51 52 52 53 54 54 53 54 53 52 52 52 51 50 49 48 48 47 46 45 44 43 43 43 43 43 42
36 37 38 39 41 42 43 45 47 49 50 51 52 52 53 53 53 52 52 52 51 51 51 51 50 49 48 48 48 46 44 44 43 43 42 41 41 41
36 37 37 38 40 41 42 44 45 47 48 49 50 51 52 52 52 51 50 50 50 50 50 50 50 49 47 46 47 46 45 45 44 44 43 42 41 41
34 35 36 37 38 39 41 42 44 45 46 47 49 49 50 50 49 49 48 48 49 48 48 48 47 47 45 45 46 46 46 45 44 44 44 43 43 42
33 34 36 38 39 40 42 43 43 44 45 46 47 47 47 47 47 47 47 47 47 47 46 46 44 43 43 43 44 45 45 45 45 44 43 43 42 41
35 36 38 39 40 41 42 42 43 44 45 45 46 46 45 45 45 45 45 45 45 45 44 43 42 42 42 42 43 43 43 43 43 43 42 42 42 41
37 39 39 39 40 41 41 42 43 44 44 44 44 44 43 43 43 43 42 42 42 42 41 41 41 40 40 41 41 41 41 42 42 41 41 41 41 40
38 38 39 39 40 40 41 42 43 43 43 43 42 42 42 41 41 41 41 40 40 40 40 40 39 39 39 38 38 38 38 38 38 39 39 39 40 40
38 39 39 40 41 41 42 42 42 42 42 42 41 41 40 40 40 40 39 39 38 37 37 37 37 37 36 36 35 35 34 34 34 35 35 35 36 37
40 40 40 40 41 41 41 41 41 41 41 40 40 40 39 39 38 37 37 37 36 35 35 34 34 34 34 34 34 33 32 32 32 32 32 32 31 32
41 41 41 41 41 41 40 40 40 40 40 40 40 39 38 37 36 35 34 34 33 33 32 32 31 31 30 30 30 30 30 29 29 29 29 28 28 28
42 42 41 41 40 40 40 40 40 39 39 39 38 38 36 35 35 34 33 32 31 31 30 29 28 28 27 26 26 26 26 25 25 25 25 25 25 24
42 42 41 40 40 40 40 40 39 38 38 38 37 36 35 34 33 32 31 31 29 29 28 27 26 25 25 24 24 23 22 22 21 21 22 23 23 24
42 42 41 40 40 39 39 38 38 37 37 36 35 33 32 32 31 30 30 29 27 27 26 25 25 24 23 22 22 21 21 21 20 19 20 21 22 23
42 41 40 39 39 38 37 36 36 35 34 33 32 31 31 30 29 28 28 27 26 25 25 24 23 23 22 21 20 20 20 20 20 19 19 20 21 23
Wind_Direction
262 263 265 266 266 265 266 267 267 267 267 268 269 270 270 272 273 275 276 277 277 278 279 280 280 279 278 278 277 276 276 276 275 273 271 270 269 269
261 263 264 265 265 265 265 266 268 269 269 269 270 271 271 272 273 276 278 278 279 279 280 281 280 279 278 277 276 275 275 274 273 272 270 269 268 267
262 263 263 263 264 265 265 266 268 270 271 271 271 272 273 274 275 278 278 279 280 280 281 281 281 280 279 277 276 275 274 274 272 271 269 268 268 267
264 264 264 265 266 266 267 267 268 270 271 271 272 273 274 275 276 278 279 280 281 281 282 281 281 281 279 278 278 276 274 273 272 270 269 268 268 267
265 265 267 267 267 268 268 268 270 271 271 272 273 274 274 276 277 278 279 281 282 282 282 281 281 280 280 279 278 276 274 272 271 270 269 267 266 265
267 268 268 268 268 268 269 269 271 272 272 273 274 275 276 278 278 279 280 281 281 281 281 281 280 280 280 279 277 275 273 272 270 269 268 267 265 265
269 269 270 270 269 270 270 271 273 274 274 275 276 277 278 279 280 281 281 281 281 281 281 280 280 280 279 277 277 275 273 272 271 270 268 268 266 265
272 273 272 272 272 271 271 272 273 275 275 276 278 279 279 280 281 282 282 281 281 280 280 280 279 278 277 277 276 275 273 272 270 269 268 267 266 264
277 278 277 275 275 275 275 275 276 277 277 278 279 280 281 282 283 282 282 281 281 279 278 279 278 278 277 276 275 275 273 272 269 268 267 265 264 261
281 280 279 278 278 278 279 280 280 280 280 280 281 282 282 283 283 282 282 281 280 279 278 278 278 277 276 275 274 274 273 271 270 268 266 264 263 260
282 281 281 281 281 281 282 283 284 284 283 283 283 284 284 284 284 283 282 282 280 279 279 278 277 275 274 273 273 272 271 271 269 266 265 264 263 260
287 285 285 284 284 285 286 287 287 287 286 286 286 286 286 285 285 284 283 282 281 280 280 279 278 276 273 272 271 270 270 269 267 265 263 262 261 258
290 290 290 288 288 288 288 288 289 290 289 288 288 287 286 286 286 285 284 283 282 281 280 279 277 276 274 273 271 271 270 268 266 264 262 261 259 257
293 292 292 292 290 289 290 290 290 291 290 290 289 288 286 286 285 284 284 284 283 282 280 278 277 276 276 274 271 270 270 269 266 263 261 259 257 255
295 295 295 293 292 291 289 290 290 291 292 291 289 289 288 287 286 285 284 284 284 282 279 278 278 277 277 276 273 270 269 268 266 263 260 258 255 253
298 297 296 294 294 293 292 291 292 292 292 291 291 290 290 289 287 286 285 284 285 284 281 279 278 278 278 277 275 272 269 266 263 261 260 258 254 253
299 298 296 295 295 294 294 294 293 293 292 292 291 291 290 289 288 286 285 285 285 284 282 281 280 280 279 277 275 273 268 265 263 261 260 256 252 251
298 297 296 296 296 295 295 294 294 294 294 293 292 292 291 290 290 288 286 285 284 284 283 283 282 280 278 275 274 272 268 266 263 260 257 253 249 244
298 298 297 297 297 297 296 295 295 294 294 293 293 293 292 291 290 289 287 285 284 284 284 284 282 281 279 275 272 270 268 266 260 255 252 248 244 239
300 299 297 297 297 297 296 295 294 293 293 293 293 292 292 290 289 289 287 286 284 283 283 283 281 281 279 276 272 269 266 261 255 249 244 240 236 231
301 299 298 298 298 298 297 295 294 293 293 293 293 292 291 290 289 288 287 286 284 282 282 282 280 279 278 275 270 267 262 255 250 245 237 232 228 224
301 300 299 298 298 298 296 295 294 294 294 294 293 291 290 289 289 288 287 285 283 282 280 280 278 276 275 271 266 261 255 249 244 238 230 226 223 220
300 299 299 298 298 298 296 295 294 294 294 294 293 291 290 289 289 287 286 284 282 281 281 280 278 275 273 268 263 255 247 242 239 232 226 221 219 217
Height
5687 5687 5688 5688 5688 5689 5689 5690 5691 5691 5693 5693 5692 5691 5689 5688 5687 5685 5684 5683 5680 5678 5676 5673 5671 5668 5666 5664 5661 5659 5658 5656 5654 5653 5653 5653 5653 5654
5675 5675 5676 5676 5677 5677 5678 5678 5678 5678 5679 5681 5679 5678 5676 5675 5674 5672 5670 5668 5666 5664 5661 5658 5655 5652 5650 5648 5646 5644 5642 5640 5639 5638 5638 5638 5638 5639
5663 5663 5664 5665 5665 5665 5665 5665 5665 5665 5666 5668 5666 5665 5663 5662 5660 5658 5655 5653 5651 5648 5645 5642 5639 5636 5634 5631 5629 5627 5626 5624 5623 5623 5622 5622 5622 5623
5652 5652 5652 5652 5653 5653 5653 5653 5653 5652 5652 5654 5653 5651 5649 5647 5645 5643 5641 5638 5635 5632 5629 5626 5623 5620 5617 5615 5612 5611 5609 5608 5607 5607 5607 5607 5607 5607
5641 5641 5641 5640 5641 5641 5640 5640 5640 5639 5638 5639 5638 5637 5635 5632 5630 5628 5626 5623 5619 5616 5613 5610 5607 5604 5601 5598 5596 5594 5593 5592 5592 5592 5592 5592 5592 5592
5630 5630 5629 5629 5629 5628 5627 5627 5626 5625 5624 5624 5623 5622 5620 5617 5615 5613 5610 5607 5603 5600 5596 5593 5590 5587 5585 5582 5581 5579 5577 5577 5577 5577 5576 5576 5577 5578
5618 5618 5617 5616 5615 5615 5614 5614 5613 5612 5610 5609 5608 5606 5604 5602 5599 5596 5594 5591 5588 5583 5580 5578 5574 5572 5569 5567 5565 5563 5562 5562 5561 5561 5561 5561 5561 5562
5607 5606 5605 5604 5603 5602 5601 5600 5599 5597 5596 5594 5593 5591 5589 5586 5583 5580 5577 5574 5573 5569 5564 5562 5559 5556 5554 5552 5550 5548 5547 5546 5546 5546 5546 5546 5546 5547
5597 5595 5594 5592 5591 5589 5588 5587 5585 5583 5581 5579 5577 5575 5573 5571 5567 5564 5560 5556 5554 5551 5548 5547 5543 5541 5539 5537 5535 5534 5533 5532 5531 5531 5531 5531 5532 5533
5587 5585 5583 5581 5579 5577 5576 5573 5571 5568 5566 5564 5562 5559 5556 5553 5549 5547 5543 5540 5538 5534 5531 5530 5528 5525 5523 5522 5520 5519 5519 5518 5517 5517 5517 5518 5518 5520
5577 5574 5572 5570 5567 5565 5563 5560 5557 5554 5551 5548 5545 5542 5539 5536 5532 5530 5527 5524 5522 5519 5516 5514 5512 5510 5509 5507 5506 5505 5504 5504 5504 5504 5504 5505 5506 5508
5567 5564 5561 5559 5556 5553 5550 5548 5545 5541 5538 5534 5531 5527 5524 5520 5517 5513 5511 5508 5506 5503 5501 5498 5496 5494 5494 5494 5492 5491 5490 5490 5490 5490 5491 5492 5493 5495
5557 5554 5551 5548 5544 5541 5538 5535 5532 5529 5525 5521 5518 5514 5510 5506 5503 5499 5496 5493 5490 5488 5486 5483 5481 5479 5478 5479 5478 5477 5477 5476 5476 5477 5477 5479 5480 5482
5547 5544 5540 5536 5533 5530 5526 5523 5520 5516 5512 5508 5504 5501 5497 5493 5490 5486 5483 5479 5476 5474 5471 5468 5467 5466 5464 5464 5464 5464 5463 5462 5463 5463 5464 5465 5467 5469
5537 5533 5529 5525 5521 5518 5514 5511 5507 5504 5499 5495 5492 5488 5484 5480 5477 5473 5470 5466 5463 5460 5457 5455 5454 5452 5451 5450 5449 5449 5449 5449 5448 5449 5451 5453 5455 5457
5526 5522 5517 5514 5510 5507 5503 5499 5495 5491 5487 5483 5479 5475 5472 5468 5464 5461 5457 5454 5451 5448 5445 5443 5441 5440 5438 5436 5435 5435 5435 5435 5436 5436 5437 5439 5441 5444
5515 5511 5507 5503 5499 5495 5491 5487 5483 5479 5475 5471 5467 5464 5460 5456 5452 5449 5446 5442 5440 5437 5434 5431 5429 5427 5426 5425 5424 5423 5422 5422 5423 5424 5425 5427 5428 5430
5505 5500 5496 5492 5488 5484 5479 5475 5471 5467 5463 5459 5455 5451 5448 5444 5441 5437 5434 5432 5429 5426 5423 5421 5418 5416 5415 5413 5413 5412 5412 5412 5412 5412 5413 5415 5417 5419
5494 5489 5485 5480 5476 5472 5468 5464 5460 5456 5452 5448 5444 5440 5436 5433 5430 5427 5424 5421 5419 5416 5413 5411 5408 5407 5405 5404 5403 5402 5402 5402 5402 5403 5404 5406 5409 5411
5482 5477 5473 5469 5465 5460 5456 5452 5448 5444 5440 5437 5433 5429 5425 5422 5419 5416 5414 5411 5409 5406 5403 5401 5400 5398 5397 5396 5395 5393 5393 5393 5394 5395 5397 5399 5402 5405
5470 5465 5461 5457 5453 5448 5444 5440 5437 5433 5429 5425 5422 5418 5415 5412 5409 5406 5404 5402 5399 5397 5395 5393 5391 5390 5389 5388 5387 5386 5386 5386 5387 5388 5391 5393 5397 5400
5458 5454 5449 5445 5441 5437 5433 5429 5425 5422 5418 5414 5411 5408 5405 5402 5399 5397 5395 5393 5390 5389 5387 5386 5384 5382 5381 5381 5380 5380 5380 5380 5382 5383 5386 5389 5392 5396
5447 5442 5438 5434 5429 5425 5421 5418 5414 5411 5407 5404 5401 5398 5395 5393 5390 5388 5386 5384 5382 5381 5379 5378 5376 5375 5374 5374 5374 5374 5375 5376 5377 5379 5381 5384 5388 5391